Mendoza, Texas
Current Conditions -  °F | °C
As of 9:15 PM on Wednesday 22 Oct 2014 (Local Time) from KHYI Reporting Station
Clear Clear  
Wind Chill: 73°   Ceiling: Unl
Heat Index: 73°   Visibility: 10mi
Dew Point: 55°   Wind: 7mph
Humidity: 53%   Direction: 60°ENE
Pressure: 30.1"   Gusts: NA
Location:  29.8965°N, 97.6713°W
Report Text: KHYI 230215Z 06006KT 10SM CLR 23/13 A3010 RMK AO1
Loading
Personal Weather Stations






























Interactive Weather Map
Tropical Storm Tracking
New forecast layout! Learn more

10-Day Weather Forecast

Advertisements
Track Severe Weather on mobile